DW9151 Weather Reports


Display with metric or nautical units.
time (UTC)temp
F
wind
direction
speed
MPH
gust
MPH
rain 1hr
in
rain 24hr
in
rain mn
in
humidity
%
barometer
mb
20260905062606 62 343 4.0 12.0 0.00 0.00 0.00 73 1016.2
20260905061606 61 353 4.0 7.0 0.00 0.00 0.00 77 1016.2
20260905060606 60 359 3.0 12.0 0.00 0.00 0.00 76 1016.2
20260905060106 61 354 7.0 13.0 0.00 0.00 0.00 74 1016.1
20260905054605 62 314 3.0 7.0 0.00 0.00 0.00 71 1015.8
20260905054106 62 322 2.0 7.0 0.00 0.00 0.00 72 1015.9
20260905053605 61 298 3.0 7.0 0.00 0.00 0.00 73 1015.9
20260905053106 61 223 3.0 8.0 0.00 0.00 0.00 74 1015.9
20260905052605 61 334 3.0 7.0 0.00 0.00 0.00 76 1016.0
20260905052106 61 354 6.0 12.0 0.00 0.00 0.00 74 1016.1
20260905050605 61 290 6.0 13.0 0.00 0.00 0.00 73 1015.6
20260905050106 60 287 5.0 8.0 0.00 0.00 0.00 73 1015.5
20260905045605 60 254 5.0 8.0 0.00 0.00 0.00 74 1015.4
20260905045105 60 215 5.0 9.0 0.00 0.00 0.00 75 1015.5
20260905044605 60 351 4.0 7.0 0.00 0.00 0.00 76 1015.5
20260905044106 60 330 2.0 7.0 0.00 0.00 0.00 76 1015.6
20260905043606 59 199 3.0 8.0 0.00 0.00 0.00 76 1015.6
20260905043105 59 10 2.0 10.0 0.00 0.00 0.00 77 1015.8
20260905042605 59 95 4.0 7.0 0.00 0.00 0.00 78 1015.8
20260905042106 59 3 5.0 9.0 0.00 0.00 0.00 78 1015.8
20260905041606 59 0 3.0 10.0 0.00 0.00 0.00 79 1015.9
20260905041106 59 358 3.0 8.0 0.00 0.00 0.00 80 1015.9
20260905040105 59 354 3.0 9.0 0.00 0.00 0.00 81 1016.0
20260905035606 59 354 4.0 8.0 0.00 0.00 0.00 81 1016.0
20260905035106 58 350 5.0 8.0 0.00 0.00 0.00 81 1016.0
20260905034605 58 337 5.0 8.0 0.00 0.00 0.00 82 1016.1
20260905034105 58 345 2.0 5.0 0.00 0.00 0.00 82 1016.1
20260905033105 58 316 5.0 7.0 0.00 0.00 0.00 83 1016.0
20260905032606 58 306 4.0 10.0 0.00 0.00 0.00 83 1016.0
20260905032105 58 266 5.0 8.0 0.00 0.00 0.00 83 1016.0
20260905031605 58 168 5.0 9.0 0.00 0.00 0.00 83 1016.0
20260905031105 58 114 6.0 12.0 0.00 0.00 0.00 83 1016.1
20260905030606 58 330 5.0 9.0 0.00 0.00 0.00 84 1015.9
20260905030106 58 332 5.0 12.0 0.00 0.00 0.00 84 1016.0
20260905025606 58 220 6.0 12.0 0.00 0.00 0.00 84 1016.1
20260905025105 58 82 4.0 10.0 0.00 0.00 0.00 84 1016.0
20260905024605 58 76 5.0 9.0 0.00 0.00 0.00 84 1016.1
20260905024105 58 244 5.0 13.0 0.00 0.00 0.00 84 1016.1
20260905023106 58 336 5.0 10.0 0.00 0.00 0.00 84 1016.1
20260905022605 58 282 5.0 12.0 0.00 0.00 0.00 84 1016.1
20260905022106 58 242 5.0 9.0 0.00 0.00 0.00 83 1016.2
20260905021605 58 267 4.0 7.0 0.00 0.00 0.00 83 1016.2
20260905021105 58 356 3.0 7.0 0.00 0.00 0.00 84 1016.1
20260905020106 58 358 5.0 10.0 0.00 0.00 0.00 84 1016.2
20260905015105 58 356 3.0 7.0 0.00 0.00 0.00 84 1016.3
20260905014606 58 220 4.0 8.0 0.00 0.00 0.00 84 1016.4
20260905014105 58 230 5.0 9.0 0.00 0.00 0.00 84 1016.4
20260905013606 58 238 3.0 7.0 0.00 0.00 0.00 84 1016.4
20260905012605 58 108 3.0 8.0 0.00 0.00 0.00 84 1016.5
20260905011605 58 136 3.0 7.0 0.00 0.00 0.00 84 1016.5
20260905011105 58 116 5.0 8.0 0.00 0.00 0.00 84 1016.6
20260905010605 58 338 3.0 6.0 0.00 0.00 0.00 84 1016.7
20260905010105 58 88 3.0 6.0 0.00 0.00 0.00 85 1016.7
20260905005105 58 212 3.0 7.0 0.00 0.00 0.00 85 1016.7
20260905004606 58 272 6.0 13.0 0.00 0.00 0.00 85 1016.6
20260905004105 58 298 7.0 12.0 0.00 0.00 0.00 85 1016.7
20260905003605 58 239 5.0 10.0 0.00 0.00 0.00 85 1016.7
20260905003105 58 190 3.0 10.0 0.00 0.00 0.00 85 1016.7
20260905002605 58 337 5.0 9.0 0.00 0.00 0.00 85 1016.7
20260905002106 58 236 6.0 13.0 0.00 0.00 0.00 85 1016.8
20260905001605 58 266 5.0 9.0 0.00 0.00 0.00 85 1016.9
20260905000605 58 166 5.0 12.0 0.00 0.00 0.00 85 1017.1
20260905000107 58 91 3.0 5.0 0.00 0.00 0.00 85 1017.1
20260904235105 58 151 3.0 6.0 0.00 0.00 0.00 85 1017.2
20260904234605 58 312 3.0 5.0 0.00 0.00 0.00 85 1017.2
20260904234105 58 298 2.0 5.0 0.00 0.00 0.00 85 1017.2
20260904233605 58 304 3.0 7.0 0.00 0.00 0.00 85 1017.2
20260904233105 58 350 2.0 8.0 0.00 0.00 0.00 85 1017.4
20260904232105 58 277 3.0 7.0 0.00 0.00 0.00 85 1017.4
20260904231605 58 320 3.0 9.0 0.00 0.00 0.00 85 1017.5
20260904231105 58 347 5.0 12.0 0.00 0.00 0.00 85 1017.5
20260904230605 58 310 5.0 12.0 0.00 0.00 0.00 84 1017.6
20260904230106 58 345 3.0 12.0 0.00 0.00 0.00 85 1017.6
20260904225105 58 332 5.0 9.0 0.00 0.00 0.00 85 1017.6
20260904224605 58 281 3.0 10.0 0.00 0.00 0.00 85 1017.7
20260904224105 58 341 5.0 8.0 0.00 0.00 0.00 85 1017.7
20260904223105 59 100 5.0 7.0 0.00 0.00 0.00 84 1017.7
20260904222605 59 69 5.0 9.0 0.00 0.00 0.00 84 1017.7
20260904221605 59 87 5.0 8.0 0.00 0.00 0.00 85 1017.6
20260904221105 59 85 5.0 9.0 0.00 0.00 0.00 85 1017.6
20260904220605 59 220 5.0 13.0 0.00 0.00 0.00 85 1017.7
20260904220105 59 180 5.0 9.0 0.00 0.00 0.00 84 1017.7
20260904215605 59 117 5.0 12.0 0.00 0.00 0.00 85 1017.6
20260904215105 59 34 5.0 10.0 0.00 0.00 0.00 85 1017.7
20260904213105 59 220 4.0 12.0 0.00 0.00 0.00 84 1017.8
20260904212105 59 285 3.0 8.0 0.00 0.00 0.00 84 1017.8
20260904211105 59 251 4.0 9.0 0.00 0.00 0.00 84 1018.0
20260904210605 59 338 5.0 9.0 0.00 0.00 0.00 84 1018.0
20260904210105 59 220 5.0 10.0 0.00 0.00 0.00 84 1018.0
20260904205605 59 281 4.0 10.0 0.00 0.00 0.00 83 1018.2
20260904204105 59 237 4.0 9.0 0.00 0.00 0.00 85 1018.2
20260904203605 59 27 4.0 7.0 0.00 0.00 0.00 84 1018.2
20260904203105 59 52 5.0 8.0 0.00 0.00 0.00 84 1018.2
20260904202105 59 28 5.0 8.0 0.00 0.00 0.00 84 1018.2
20260904201605 59 57 5.0 9.0 0.00 0.00 0.00 84 1018.2
20260904201105 59 75 6.0 15.0 0.00 0.00 0.00 84 1018.2
20260904200604 59 183 5.0 13.0 0.00 0.00 0.00 84 1018.2
20260904195604 59 111 6.0 13.0 0.00 0.00 0.00 84 1018.2
20260904195105 59 167 7.0 15.0 0.00 0.00 0.00 85 1018.2
20260904194605 59 110 7.0 18.0 0.00 0.00 0.00 85 1018.2
20260904194105 59 325 6.0 14.0 0.00 0.00 0.00 85 1018.4
20260904192104 59 62 6.0 12.0 0.00 0.00 0.00 85 1018.5
20260904191605 59 163 4.0 10.0 0.00 0.00 0.00 85 1018.5
20260904191105 59 150 4.0 9.0 0.00 0.00 0.00 85 1018.6
20260904190105 59 124 5.0 14.0 0.00 0.00 0.00 85 1018.5
20260904185105 59 158 4.0 8.0 0.00 0.00 0.00 85 1018.4
20260904184608 60 236 3.0 7.0 0.00 0.00 0.00 85 1018.5
20260904184105 60 176 3.0 5.0 0.00 0.00 0.00 85 1018.4
20260904183604 60 1 3.0 7.0 0.00 0.00 0.00 84 1018.4
20260904183105 60 142 4.0 12.0 0.00 0.00 0.00 84 1018.3
20260904182605 60 204 5.0 10.0 0.00 0.00 0.00 84 1018.3
20260904181605 60 291 3.0 10.0 0.00 0.00 0.00 83 1018.3
20260904181105 60 204 6.0 10.0 0.00 0.00 0.00 83 1018.3
20260904180605 60 205 4.0 9.0 0.00 0.00 0.00 84 1018.2
20260904174605 59 139 9.0 15.0 0.00 0.00 0.00 84 1018.0
20260904174105 59 101 7.0 14.0 0.00 0.00 0.00 84 1018.0
20260904173105 60 123 6.0 10.0 0.00 0.00 0.00 80 1018.1
20260904171604 60 194 5.0 10.0 0.00 0.00 0.00 80 1018.2
20260904171104 60 311 3.0 8.0 0.00 0.00 0.00 82 1018.2
20260904170605 60 310 5.0 9.0 0.00 0.00 0.00 84 1018.3
20260904170104 60 193 3.0 6.0 0.00 0.00 0.00 83 1018.2
20260904165604 60 321 3.0 8.0 0.00 0.00 0.00 83 1018.2
20260904164104 61 181 5.0 9.0 0.00 0.00 0.00 83 1018.3
20260904163605 62 245 6.0 10.0 0.00 0.00 0.00 83 1018.3
20260904163104 62 174 5.0 12.0 0.00 0.00 0.00 83 1018.3
20260904162606 61 158 6.0 10.0 0.00 0.00 0.00 83 1018.4
20260904162104 61 92 6.0 13.0 0.00 0.00 0.00 83 1018.3
20260904161605 62 181 6.0 10.0 0.00 0.00 0.00 83 1018.3
20260904161104 61 152 6.0 12.0 0.00 0.00 0.00 84 1018.2
20260904160604 62 143 8.0 12.0 0.00 0.00 0.00 84 1018.2
20260904155605 62 157 5.0 9.0 0.00 0.00 0.00 82 1018.3
20260904155104 62 142 6.0 12.0 0.00 0.00 0.00 82 1018.4
20260904154604 63 160 7.0 12.0 0.00 0.00 0.00 82 1018.4
20260904154104 63 295 5.0 10.0 0.00 0.00 0.00 81 1018.4
20260904153105 63 279 3.0 8.0 0.00 0.00 0.00 81 1018.5
20260904152604 63 168 3.0 9.0 0.00 0.00 0.00 80 1018.6
20260904152104 63 157 6.0 12.0 0.00 0.00 0.00 80 1018.6
20260904151104 63 157 6.0 12.0 0.00 0.00 0.00 79 1018.6
20260904150604 63 162 4.0 7.0 0.00 0.00 0.00 79 1018.7
20260904150105 64 151 6.0 12.0 0.00 0.00 0.00 78 1018.7
20260904145607 64 180 5.0 7.0 0.00 0.00 0.00 78 1018.8
20260904145104 64 158 5.0 8.0 0.00 0.00 0.00 78 1018.8
20260904144604 65 167 2.0 6.0 0.00 0.00 0.00 79 1018.9
20260904144104 65 177 3.0 5.0 0.00 0.00 0.00 77 1018.9
20260904143604 65 170 2.0 6.0 0.00 0.00 0.00 79 1018.9
20260904143104 65 170 4.0 7.0 0.00 0.00 0.00 78 1018.9
20260904142605 65 211 2.0 5.0 0.00 0.00 0.00 77 1019.0
20260904142104 65 156 3.0 7.0 0.00 0.00 0.00 78 1019.0
20260904141605 65 156 3.0 5.0 0.00 0.00 0.00 78 1018.9
20260904141104 65 150 4.0 7.0 0.00 0.00 0.00 78 1019.0
20260904140604 65 153 2.0 6.0 0.00 0.00 0.00 78 1019.0
20260904135604 66 159 2.0 6.0 0.00 0.00 0.00 77 1019.2
20260904134605 65 151 5.0 8.0 0.00 0.00 0.00 76 1019.2
20260904134104 66 141 6.0 9.0 0.00 0.00 0.00 76 1019.1
20260904133604 66 151 3.0 7.0 0.00 0.00 0.00 76 1019.2
20260904132605 66 145 2.0 7.0 0.00 0.00 0.00 76 1019.3
20260904132104 65 149 3.0 8.0 0.00 0.00 0.00 76 1019.3
20260904131104 65 318 3.0 9.0 0.00 0.00 0.00 77 1019.3
20260904130605 65 157 5.0 10.0 0.00 0.00 0.00 75 1019.3
20260904130104 65 172 4.0 12.0 0.00 0.00 0.00 75 1019.3
20260904125604 66 78 4.0 9.0 0.00 0.00 0.00 74 1019.3
20260904125104 66 161 5.0 10.0 0.00 0.00 0.00 75 1019.3
20260904124604 66 142 4.0 8.0 0.00 0.00 0.00 75 1019.3
20260904124104 66 150 4.0 8.0 0.00 0.00 0.00 76 1019.4
20260904122604 65 153 6.0 12.0 0.00 0.00 0.00 78 1019.5
20260904122104 66 153 4.0 12.0 0.00 0.00 0.00 77 1019.5
20260904121605 66 136 5.0 10.0 0.00 0.00 0.00 77 1019.4
20260904121104 65 133 5.0 10.0 0.00 0.00 0.00 78 1019.5
20260904120604 65 149 5.0 10.0 0.00 0.00 0.00 80 1019.4
20260904120104 65 149 7.0 9.0 0.00 0.00 0.00 77 1019.5
20260904115604 66 143 5.0 7.0 0.00 0.00 0.00 80 1019.5
20260904115104 65 152 4.0 8.0 0.00 0.00 0.00 79 1019.5
20260904114604 65 149 5.0 8.0 0.00 0.00 0.00 77 1019.6
20260904114104 65 147 2.0 12.0 0.00 0.00 0.00 80 1019.6
20260904113604 65 142 5.0 9.0 0.00 0.00 0.00 80 1019.6
20260904113104 65 159 3.0 9.0 0.00 0.00 0.00 79 1019.6
20260904112604 65 149 6.0 9.0 0.00 0.00 0.00 77 1019.6
20260904112104 66 146 3.0 8.0 0.00 0.00 0.00 79 1019.7
20260904111604 65 149 4.0 7.0 0.00 0.00 0.00 80 1019.6
20260904111104 64 140 5.0 12.0 0.00 0.00 0.00 80 1019.6
20260904110605 65 146 4.0 8.0 0.00 0.00 0.00 78 1019.7
20260904105604 66 129 5.0 10.0 0.00 0.00 0.00 79 1019.7
20260904105104 66 142 3.0 8.0 0.00 0.00 0.00 77 1019.7
20260904104604 66 139 5.0 9.0 0.00 0.00 0.00 78 1019.8
20260904104104 67 153 3.0 9.0 0.00 0.00 0.00 77 1019.8
20260904103605 67 140 2.0 8.0 0.00 0.00 0.00 78 1019.7
20260904103104 66 133 3.0 7.0 0.00 0.00 0.00 78 1019.8
20260904102606 66 136 5.0 9.0 0.00 0.00 0.00 77 1019.8
20260904102106 66 136 5.0 10.0 0.00 0.00 0.00 77 1019.8
20260904101106 65 138 4.0 10.0 0.00 0.00 0.00 81 1019.8
20260904100606 65 137 5.0 8.0 0.00 0.00 0.00 79 1019.9
20260904100106 65 148 4.0 7.0 0.00 0.00 0.00 77 1019.9
20260904095606 66 135 5.0 8.0 0.00 0.00 0.00 79 1019.9
20260904095106 65 130 5.0 7.0 0.00 0.00 0.00 79 1019.9
20260904094606 65 143 3.0 8.0 0.00 0.00 0.00 79 1019.9
20260904094106 65 85 5.0 9.0 0.00 0.00 0.00 78 1019.9
20260904093605 64 174 5.0 9.0 0.00 0.00 0.00 78 1019.9
20260904093106 64 147 5.0 9.0 0.00 0.00 0.00 79 1019.9
20260904092605 65 128 5.0 10.0 0.00 0.00 0.00 78 1019.9
20260904092106 65 154 5.0 8.0 0.00 0.00 0.00 77 1020.0
20260904091606 65 158 3.0 7.0 0.00 0.00 0.00 76 1020.0
20260904091106 65 150 4.0 8.0 0.00 0.00 0.00 75 1020.0
20260904090606 65 138 5.0 8.0 0.00 0.00 0.00 76 1020.1
20260904090106 65 135 6.0 9.0 0.00 0.00 0.00 75 1020.1
20260904085606 66 133 3.0 8.0 0.00 0.00 0.00 77 1020.0
20260904084606 66 154 5.0 7.0 0.00 0.00 0.00 70 1020.0
20260904084106 67 152 2.0 5.0 0.00 0.00 0.00 74 1020.0
20260904083605 67 154 3.0 7.0 0.00 0.00 0.00 71 1020.1
20260904083105 66 148 3.0 5.0 0.00 0.00 0.00 73 1020.1
20260904082605 65 149 3.0 6.0 0.00 0.00 0.00 71 1020.1
20260904082106 65 147 2.0 5.0 0.00 0.00 0.00 76 1020.0
20260904081606 65 146 5.0 7.0 0.00 0.00 0.00 75 1020.1
20260904081106 66 147 3.0 7.0 0.00 0.00 0.00 73 1020.0
20260904080605 67 148 3.0 5.0 0.00 0.00 0.00 71 1020.0
20260904080106 68 125 3.0 5.0 0.00 0.00 0.00 69 1020.1
20260904074106 69 34 1.0 3.0 0.00 0.00 0.00 65 1020.1
20260904073607 68 31 1.0 3.0 0.00 0.00 0.00 65 1020.1
20260904072606 67 31 1.0 3.0 0.00 0.00 0.00 68 1020.1
20260904072105 67 31 1.0 3.0 0.00 0.00 0.00 70 1020.2
20260904071106 67 31 1.0 3.0 0.00 0.00 0.00 69 1020.0
20260904070106 67 31 3.0 5.0 0.00 0.00 0.00 66 1020.1
20260904065606 67 355 1.0 3.0 0.00 0.00 0.00 68 1020.1
20260904065105 66 352 1.0 2.0 0.00 0.00 0.00 59 1020.2